AAY986 KPIE-KBGR

Flight info

Callsign AAY986
Flight time 3h 2m
Altitude 37000
Route BAYPO2 CAMJO HEPAR Q99 POLYY DADDS Q87 GEARS BBOBO Q22 FOXWD BOS
Aircraft A320/M-SDE3FGHIRWY/LB1

Departure

Time 2026-04-26 13:49
Airport St. Petersburg Clearwater International Airport (KPIE)

Arrival

Time 2026-04-26 16:51
Airport Bangor International Airport (KBGR)
Time Latitude Longitude Altitude Speed Heading
2026-04-26 13:21 27.90758 -82.69160 25 ft 0 kts 179°
2026-04-26 13:41 27.90764 -82.69160 24 ft 4 kts 179°
2026-04-26 13:42 27.90791 -82.69162 26 ft 4 kts 173°
2026-04-26 13:42 27.90817 -82.69168 24 ft 4 kts 153°
2026-04-26 13:42 27.90832 -82.69182 24 ft 0 kts 120°
2026-04-26 13:44 27.90834 -82.69136 24 ft 12 kts 84°
2026-04-26 13:44 27.90839 -82.69047 24 ft 11 kts 88°
2026-04-26 13:45 27.90851 -82.68974 26 ft 8 kts 39°
2026-04-26 13:45 27.90925 -82.68982 24 ft 17 kts 350°
2026-04-26 13:45 27.91056 -82.69005 23 ft 19 kts 351°
2026-04-26 13:45 27.91191 -82.69028 24 ft 20 kts 351°
2026-04-26 13:46 27.91331 -82.69053 24 ft 17 kts 351°
2026-04-26 13:46 27.91453 -82.69075 25 ft 18 kts 351°
2026-04-26 13:46 27.91583 -82.69097 24 ft 19 kts 351°
2026-04-26 13:46 27.91720 -82.69120 25 ft 21 kts 351°
2026-04-26 13:47 27.91867 -82.69146 24 ft 22 kts 351°
2026-04-26 13:47 27.92022 -82.69174 25 ft 22 kts 351°
2026-04-26 13:47 27.92134 -82.69192 24 ft 15 kts 352°
2026-04-26 13:47 27.92236 -82.69209 24 ft 15 kts 351°
2026-04-26 13:48 27.92317 -82.69170 23 ft 13 kts 61°
2026-04-26 13:48 27.92319 -82.69077 22 ft 11 kts 130°
2026-04-26 13:48 27.92179 -82.69042 24 ft 45 kts 172°
2026-04-26 13:48 27.91626 -82.68946 23 ft 113 kts 171°
2026-04-26 13:49 27.90669 -82.68781 32 ft 163 kts 172°
2026-04-26 13:49 27.89544 -82.68590 654 ft 161 kts 172°
2026-04-26 13:49 27.88426 -82.68385 1334 ft 164 kts 172°
2026-04-26 13:49 27.87257 -82.68180 1787 ft 179 kts 174°
2026-04-26 13:50 27.85944 -82.67967 2077 ft 202 kts 174°
2026-04-26 13:50 27.84969 -82.67813 2269 ft 216 kts 176°
2026-04-26 13:50 27.83466 -82.68055 2588 ft 234 kts 207°
2026-04-26 13:50 27.81485 -82.69377 3320 ft 256 kts 212°
2026-04-26 13:51 27.80447 -82.70084 3888 ft 259 kts 212°
2026-04-26 13:51 27.78910 -82.71126 4739 ft 263 kts 212°
2026-04-26 13:51 27.77521 -82.72467 5577 ft 266 kts 235°
2026-04-26 13:51 27.76827 -82.74394 6424 ft 269 kts 262°
2026-04-26 13:52 27.77010 -82.76504 7251 ft 275 kts 288°
2026-04-26 13:52 27.77748 -82.78508 8078 ft 279 kts 293°
2026-04-26 13:52 27.78691 -82.80425 8866 ft 284 kts 309°
2026-04-26 13:52 27.80254 -82.81807 9612 ft 290 kts 330°
2026-04-26 13:53 27.82085 -82.82798 10429 ft 292 kts 334°
2026-04-26 13:53 27.84001 -82.83561 11227 ft 295 kts 348°
2026-04-26 13:53 27.86067 -82.83503 12006 ft 303 kts 11°
2026-04-26 13:53 27.88052 -82.82642 12788 ft 307 kts 21°
2026-04-26 13:54 27.90002 -82.81660 13547 ft 308 kts 21°
2026-04-26 13:54 27.91969 -82.80658 14248 ft 311 kts 21°
2026-04-26 13:54 27.93954 -82.79645 14917 ft 315 kts 21°
2026-04-26 13:55 27.98027 -82.77570 15833 ft 336 kts 20°
2026-04-26 13:55 27.99470 -82.76838 15911 ft 349 kts 21°
2026-04-26 13:55 28.04939 -82.74067 16543 ft 381 kts 21°
2026-04-26 13:56 28.07370 -82.72827 17086 ft 385 kts 21°
2026-04-26 13:56 28.09828 -82.71575 17653 ft 388 kts 21°
2026-04-26 13:56 28.12296 -82.70321 18203 ft 390 kts 21°
2026-04-26 13:56 28.14784 -82.69057 18712 ft 393 kts 21°
2026-04-26 13:57 28.17291 -82.67783 19224 ft 396 kts 21°
2026-04-26 13:57 28.19815 -82.66500 19730 ft 399 kts 20°
2026-04-26 13:57 28.22353 -82.65206 20239 ft 402 kts 20°
2026-04-26 13:57 28.24911 -82.63899 20729 ft 404 kts 20°
2026-04-26 13:58 28.27482 -82.62582 21207 ft 407 kts 20°
2026-04-26 13:58 28.30072 -82.61255 21666 ft 410 kts 20°
2026-04-26 13:58 28.32680 -82.59922 22109 ft 412 kts 20°
2026-04-26 13:58 28.35360 -82.58796 22539 ft 410 kts 11°
2026-04-26 13:59 28.38160 -82.58221 22967 ft 408 kts
2026-04-26 13:59 28.40959 -82.58180 23382 ft 407 kts 355°
2026-04-26 13:59 28.43801 -82.58259 23800 ft 409 kts 355°
2026-04-26 14:00 28.52410 -82.58485 25001 ft 415 kts 355°
2026-04-26 14:00 28.55307 -82.58559 25398 ft 417 kts 355°
2026-04-26 14:00 28.57229 -82.58608 25652 ft 418 kts 355°
2026-04-26 14:01 28.61133 -82.58708 26143 ft 420 kts 355°
2026-04-26 14:01 28.64063 -82.58782 26512 ft 422 kts 355°
2026-04-26 14:01 28.67004 -82.58878 26865 ft 422 kts 352°
2026-04-26 14:01 28.69923 -82.59250 27204 ft 423 kts 349°
2026-04-26 14:02 28.72852 -82.59656 27548 ft 424 kts 350°
2026-04-26 14:02 28.75784 -82.60061 27885 ft 425 kts 349°
2026-04-26 14:02 28.78725 -82.60471 28196 ft 427 kts 349°
2026-04-26 14:02 28.81674 -82.60887 28491 ft 428 kts 349°
2026-04-26 14:03 28.84637 -82.61305 28783 ft 430 kts 349°
2026-04-26 14:03 28.87570 -82.61714 29076 ft 431 kts 350°
2026-04-26 14:03 28.90550 -82.62127 29363 ft 432 kts 350°
2026-04-26 14:03 28.93540 -82.62541 29635 ft 433 kts 349°
2026-04-26 14:04 28.96537 -82.62959 29888 ft 435 kts 349°
2026-04-26 14:04 28.99532 -82.63378 30272 ft 433 kts 349°
2026-04-26 14:04 29.02518 -82.63798 30671 ft 431 kts 349°
2026-04-26 14:04 29.05483 -82.64217 31074 ft 428 kts 349°
2026-04-26 14:05 29.08439 -82.64635 31473 ft 425 kts 349°
2026-04-26 14:05 29.11370 -82.65046 31876 ft 423 kts 349°
2026-04-26 14:05 29.14281 -82.65451 32271 ft 420 kts 349°
2026-04-26 14:05 29.17175 -82.65856 32653 ft 418 kts 349°
2026-04-26 14:06 29.20050 -82.66261 33024 ft 415 kts 349°
2026-04-26 14:06 29.22908 -82.66661 33397 ft 412 kts 349°
2026-04-26 14:06 29.25749 -82.67058 33784 ft 410 kts 349°
2026-04-26 14:06 29.28568 -82.67452 34154 ft 407 kts 349°
2026-04-26 14:07 29.31374 -82.67845 34520 ft 405 kts 349°
2026-04-26 14:07 29.34165 -82.68239 34827 ft 403 kts 349°
2026-04-26 14:07 29.36949 -82.68634 35087 ft 403 kts 349°
2026-04-26 14:07 29.39731 -82.69030 35323 ft 403 kts 349°
2026-04-26 14:08 29.42526 -82.69318 35552 ft 406 kts 355°
2026-04-26 14:08 29.45359 -82.69305 35772 ft 406 kts 356°
2026-04-26 14:08 29.48185 -82.69285 35996 ft 407 kts 356°
2026-04-26 14:08 29.50980 -82.69267 36206 ft 406 kts 356°
2026-04-26 14:09 29.53807 -82.69250 36409 ft 406 kts 356°
2026-04-26 14:09 29.56632 -82.69232 36598 ft 406 kts 356°
2026-04-26 14:09 29.59462 -82.69213 36805 ft 406 kts 356°
2026-04-26 14:09 29.62284 -82.69193 36958 ft 405 kts 356°
2026-04-26 14:10 29.65088 -82.69175 36990 ft 402 kts 356°
2026-04-26 14:10 29.70665 -82.69145 36980 ft 399 kts 356°
2026-04-26 14:11 29.79011 -82.69102 36980 ft 399 kts 356°
2026-04-26 14:11 29.84566 -82.69059 36978 ft 399 kts 356°
2026-04-26 14:12 29.90111 -82.69019 36979 ft 398 kts 356°
2026-04-26 14:12 29.95647 -82.68986 36979 ft 398 kts 356°
2026-04-26 14:13 30.03941 -82.68942 36979 ft 397 kts 355°
2026-04-26 14:14 30.09433 -82.68907 36983 ft 396 kts 355°
2026-04-26 14:14 30.14950 -82.68870 36981 ft 396 kts 355°
2026-04-26 14:15 30.20463 -82.68838 36977 ft 396 kts 355°
2026-04-26 14:15 30.25976 -82.68803 36975 ft 396 kts 355°
2026-04-26 14:16 30.31496 -82.68763 36979 ft 397 kts 355°
2026-04-26 14:16 30.37012 -82.68725 36978 ft 396 kts 355°
2026-04-26 14:17 30.42533 -82.68700 36980 ft 397 kts 355°
2026-04-26 14:17 30.48051 -82.68666 36984 ft 396 kts 355°
2026-04-26 14:18 30.53574 -82.68080 36983 ft 403 kts
2026-04-26 14:18 30.59085 -82.66897 36979 ft 403 kts
2026-04-26 14:19 30.64566 -82.65732 36976 ft 403 kts
2026-04-26 14:19 30.70096 -82.64556 36979 ft 404 kts
2026-04-26 14:20 30.75623 -82.63374 36979 ft 404 kts
2026-04-26 14:20 30.81158 -82.62188 36981 ft 405 kts
2026-04-26 14:21 30.86697 -82.61009 36984 ft 404 kts
2026-04-26 14:21 30.92232 -82.59825 36984 ft 405 kts
2026-04-26 14:22 30.97773 -82.58627 36985 ft 405 kts
2026-04-26 14:22 31.03316 -82.57436 36982 ft 405 kts
2026-04-26 14:23 31.08804 -82.56021 36982 ft 413 kts 12°
2026-04-26 14:23 31.14044 -82.53059 36983 ft 420 kts 19°
2026-04-26 14:24 31.19234 -82.49895 36975 ft 421 kts 19°
2026-04-26 14:24 31.24428 -82.46734 36971 ft 421 kts 19°
2026-04-26 14:25 31.29628 -82.43576 36971 ft 421 kts 19°
2026-04-26 14:25 31.34835 -82.40411 36971 ft 422 kts 19°
2026-04-26 14:26 31.40039 -82.37229 36973 ft 422 kts 19°
2026-04-26 14:26 31.45244 -82.34048 36970 ft 422 kts 19°
2026-04-26 14:27 31.50454 -82.30865 36970 ft 422 kts 19°
2026-04-26 14:27 31.55626 -82.27706 36968 ft 422 kts 19°
2026-04-26 14:28 31.60834 -82.24522 36968 ft 422 kts 19°
2026-04-26 14:28 31.66037 -82.21328 36970 ft 422 kts 19°
2026-04-26 14:29 31.71243 -82.18133 36969 ft 422 kts 19°
2026-04-26 14:29 31.76454 -82.14927 36967 ft 423 kts 19°
2026-04-26 14:30 31.81663 -82.11713 36963 ft 423 kts 19°
2026-04-26 14:30 31.86878 -82.08497 36963 ft 423 kts 19°
2026-04-26 14:31 31.92070 -82.05299 36964 ft 423 kts 19°
2026-04-26 14:31 31.97286 -82.02075 36966 ft 424 kts 19°
2026-04-26 14:32 32.02506 -81.98839 36968 ft 424 kts 19°
2026-04-26 14:32 32.07733 -81.95610 36969 ft 424 kts 19°
2026-04-26 14:33 32.12953 -81.92364 36969 ft 424 kts 19°
2026-04-26 14:33 32.18192 -81.89160 36969 ft 423 kts 18°
2026-04-26 14:34 32.23468 -81.86096 36965 ft 422 kts 17°
2026-04-26 14:34 32.28757 -81.83040 36966 ft 424 kts 18°
2026-04-26 14:35 32.34045 -81.79941 36966 ft 425 kts 18°
2026-04-26 14:35 32.39341 -81.76824 36966 ft 426 kts 18°
2026-04-26 14:36 32.44646 -81.73689 36960 ft 426 kts 18°
2026-04-26 14:36 32.49958 -81.70548 36956 ft 427 kts 18°
2026-04-26 14:37 32.54383 -81.67945 36951 ft 428 kts 18°
2026-04-26 14:37 32.60586 -81.64286 36954 ft 429 kts 18°
2026-04-26 14:38 32.65933 -81.61106 36958 ft 430 kts 19°
2026-04-26 14:38 32.70425 -81.58441 36960 ft 431 kts 19°
2026-04-26 14:39 32.75769 -81.55270 36962 ft 433 kts 19°
2026-04-26 14:39 32.81157 -81.52070 36960 ft 434 kts 19°
2026-04-26 14:40 32.86559 -81.48851 36956 ft 435 kts 19°
2026-04-26 14:40 32.91972 -81.45617 36955 ft 435 kts 19°
2026-04-26 14:41 32.97396 -81.42376 36949 ft 436 kts 19°
2026-04-26 14:41 33.02823 -81.39122 36945 ft 437 kts 19°
2026-04-26 14:42 33.08254 -81.35864 36945 ft 437 kts 20°
2026-04-26 14:42 33.13700 -81.32599 36946 ft 439 kts 20°
2026-04-26 14:43 33.19162 -81.29319 36949 ft 440 kts 20°
2026-04-26 14:43 33.24642 -81.26020 36955 ft 441 kts 20°
2026-04-26 14:44 33.30131 -81.22722 36959 ft 442 kts 20°
2026-04-26 14:44 33.35633 -81.19408 36963 ft 443 kts 20°
2026-04-26 14:45 33.41102 -81.16101 36962 ft 444 kts 20°
2026-04-26 14:45 33.46622 -81.12756 36966 ft 445 kts 20°
2026-04-26 14:46 33.52149 -81.09409 36962 ft 445 kts 20°
2026-04-26 14:46 33.57678 -81.06057 36958 ft 446 kts 20°
2026-04-26 14:47 33.63213 -81.02692 36954 ft 447 kts 21°
2026-04-26 14:47 33.68765 -80.99321 36955 ft 448 kts 21°
2026-04-26 14:48 33.74330 -80.95933 36955 ft 448 kts 21°
2026-04-26 14:48 33.79895 -80.92531 36956 ft 449 kts 21°
2026-04-26 14:49 33.85422 -80.88991 36947 ft 454 kts 28°
2026-04-26 14:49 33.90503 -80.84351 36946 ft 459 kts 33°
2026-04-26 14:50 33.95512 -80.79643 36943 ft 460 kts 33°
2026-04-26 14:50 34.00574 -80.74899 36941 ft 461 kts 33°
2026-04-26 14:51 34.05644 -80.70145 36943 ft 462 kts 34°
2026-04-26 14:51 34.10734 -80.65363 36951 ft 465 kts 34°
2026-04-26 14:52 34.15835 -80.60546 36966 ft 466 kts 34°
2026-04-26 14:52 34.20937 -80.55709 36978 ft 467 kts 34°
2026-04-26 14:53 34.26064 -80.50862 36985 ft 469 kts 34°
2026-04-26 14:53 34.31241 -80.46053 36999 ft 469 kts 33°
2026-04-26 14:54 34.36448 -80.41288 37006 ft 469 kts 33°
2026-04-26 14:54 34.41649 -80.36511 37011 ft 470 kts 33°
2026-04-26 14:55 34.46807 -80.31736 37013 ft 469 kts 34°
2026-04-26 14:55 34.51995 -80.26914 37012 ft 470 kts 34°
2026-04-26 14:56 34.57192 -80.22099 37005 ft 470 kts 34°
2026-04-26 14:56 34.62382 -80.17271 37015 ft 470 kts 34°
2026-04-26 14:57 34.67563 -80.12446 37014 ft 469 kts 34°
2026-04-26 14:57 34.72748 -80.07615 37013 ft 470 kts 34°
2026-04-26 14:58 34.77949 -80.02779 37017 ft 470 kts 34°
2026-04-26 14:58 34.82734 -79.97409 37015 ft 475 kts 49°
2026-04-26 14:59 34.86913 -79.91143 37006 ft 476 kts 49°
2026-04-26 14:59 34.91093 -79.84870 37011 ft 477 kts 49°
2026-04-26 15:00 34.95282 -79.78604 37016 ft 477 kts 49°
2026-04-26 15:00 34.99483 -79.72326 37018 ft 477 kts 49°
2026-04-26 15:01 35.03665 -79.66038 37014 ft 477 kts 49°
2026-04-26 15:01 35.07816 -79.59770 37010 ft 477 kts 49°
2026-04-26 15:02 35.11991 -79.53467 37007 ft 478 kts 49°
2026-04-26 15:02 35.16172 -79.47149 37012 ft 478 kts 49°
2026-04-26 15:03 35.20352 -79.40834 37017 ft 477 kts 49°
2026-04-26 15:03 35.24523 -79.34515 37017 ft 477 kts 49°
2026-04-26 15:04 35.28683 -79.28191 37016 ft 477 kts 49°
2026-04-26 15:04 35.32838 -79.21866 37015 ft 477 kts 50°
2026-04-26 15:05 35.36996 -79.15526 37018 ft 477 kts 50°
2026-04-26 15:05 35.41151 -79.09174 37022 ft 478 kts 50°
2026-04-26 15:06 35.45302 -79.02818 37042 ft 477 kts 49°
2026-04-26 15:06 35.49450 -78.96458 37054 ft 477 kts 49°
2026-04-26 15:07 35.55625 -78.86975 37054 ft 477 kts 49°
2026-04-26 15:07 35.59882 -78.80716 37047 ft 474 kts 41°
2026-04-26 15:08 35.65118 -78.75934 37045 ft 467 kts 25°
2026-04-26 15:08 35.70803 -78.72011 37039 ft 469 kts 26°
2026-04-26 15:09 35.76500 -78.68054 37044 ft 471 kts 26°
2026-04-26 15:09 35.82213 -78.64059 37041 ft 472 kts 26°
2026-04-26 15:10 35.86966 -78.60738 37038 ft 473 kts 26°
2026-04-26 15:10 35.93665 -78.56059 37044 ft 475 kts 26°
2026-04-26 15:11 35.99383 -78.52055 37050 ft 475 kts 26°
2026-04-26 15:11 36.05132 -78.48009 37053 ft 476 kts 26°
2026-04-26 15:12 36.10898 -78.43956 37061 ft 478 kts 27°
2026-04-26 15:12 36.16699 -78.39880 37070 ft 479 kts 26°
2026-04-26 15:13 36.22513 -78.35787 37074 ft 480 kts 26°
2026-04-26 15:13 36.28324 -78.31678 37081 ft 482 kts 27°
2026-04-26 15:14 36.34138 -78.27555 37096 ft 481 kts 27°
2026-04-26 15:14 36.39640 -78.22792 37105 ft 485 kts 41°
2026-04-26 15:15 36.44546 -78.17024 37106 ft 485 kts 42°
2026-04-26 15:15 36.49455 -78.11255 37118 ft 487 kts 41°
2026-04-26 15:16 36.54384 -78.05464 37146 ft 487 kts 41°
2026-04-26 15:16 36.59272 -77.99712 37155 ft 486 kts 41°
2026-04-26 15:17 36.63381 -77.94855 37155 ft 487 kts 42°
2026-04-26 15:17 36.69073 -77.88097 37162 ft 486 kts 42°
2026-04-26 15:18 36.73966 -77.82286 37156 ft 486 kts 42°
2026-04-26 15:18 36.78859 -77.76476 37150 ft 485 kts 42°
2026-04-26 15:19 36.83748 -77.70670 37145 ft 485 kts 41°
2026-04-26 15:19 36.88626 -77.64863 37146 ft 484 kts 42°
2026-04-26 15:20 36.93490 -77.59055 37146 ft 483 kts 42°
2026-04-26 15:20 36.98342 -77.53252 37152 ft 482 kts 42°
2026-04-26 15:21 37.03178 -77.47451 37151 ft 482 kts 42°
2026-04-26 15:21 37.08071 -77.41740 37147 ft 480 kts 36°
2026-04-26 15:22 37.13762 -77.37533 37147 ft 472 kts 18°
2026-04-26 15:22 37.19892 -77.34827 37149 ft 470 kts 15°
2026-04-26 15:23 37.26073 -77.32143 37147 ft 470 kts 15°
2026-04-26 15:23 37.32262 -77.29448 37149 ft 470 kts 15°
2026-04-26 15:24 37.38450 -77.26758 37150 ft 471 kts 15°
2026-04-26 15:24 37.44636 -77.24070 37152 ft 470 kts 15°
2026-04-26 15:25 37.49778 -77.21819 37153 ft 470 kts 15°
2026-04-26 15:25 37.55959 -77.19112 37153 ft 470 kts 15°
2026-04-26 15:26 37.62141 -77.16404 37153 ft 470 kts 15°
2026-04-26 15:26 37.69297 -77.13157 37153 ft 472 kts 21°
2026-04-26 15:27 37.74176 -77.09883 37154 ft 474 kts 25°
2026-04-26 15:27 37.79928 -77.05905 37150 ft 474 kts 25°
2026-04-26 15:28 37.85716 -77.01901 37154 ft 474 kts 25°
2026-04-26 15:28 37.91498 -76.97895 37149 ft 474 kts 26°
2026-04-26 15:29 37.97298 -76.93870 37151 ft 475 kts 25°
2026-04-26 15:30 38.08887 -76.85795 37163 ft 475 kts 25°
2026-04-26 15:30 38.14641 -76.81770 37168 ft 475 kts 25°
2026-04-26 15:31 38.23308 -76.75668 37167 ft 476 kts 28°
2026-04-26 15:32 38.30253 -76.68680 37158 ft 480 kts 38°
2026-04-26 15:32 38.36211 -76.62251 37159 ft 480 kts 38°
2026-04-26 15:33 38.41304 -76.56743 37158 ft 480 kts 38°
2026-04-26 15:33 38.46407 -76.51232 37163 ft 480 kts 38°
2026-04-26 15:34 38.51491 -76.45772 37163 ft 481 kts 37°
2026-04-26 15:34 38.56604 -76.40281 37163 ft 481 kts 37°
2026-04-26 15:35 38.61716 -76.34778 37165 ft 480 kts 37°
2026-04-26 15:35 38.66824 -76.29267 37170 ft 480 kts 38°
2026-04-26 15:36 38.71922 -76.23752 37175 ft 480 kts 38°
2026-04-26 15:36 38.77013 -76.18228 37177 ft 479 kts 38°
2026-04-26 15:37 38.82097 -76.12702 37177 ft 479 kts 38°
2026-04-26 15:37 38.87186 -76.07173 37183 ft 478 kts 38°
2026-04-26 15:38 38.92258 -76.01648 37178 ft 478 kts 38°
2026-04-26 15:38 38.97308 -75.96095 37180 ft 478 kts 39°
2026-04-26 15:39 39.02200 -75.90354 37166 ft 479 kts 40°
2026-04-26 15:39 39.06258 -75.85409 37173 ft 479 kts 41°
2026-04-26 15:40 39.11900 -75.78569 37170 ft 479 kts 40°
2026-04-26 15:40 39.16797 -75.72731 37172 ft 479 kts 40°
2026-04-26 15:41 39.21692 -75.66901 37181 ft 479 kts 40°
2026-04-26 15:41 39.26565 -75.61057 37173 ft 478 kts 40°
2026-04-26 15:42 39.31433 -75.55187 37175 ft 478 kts 40°
2026-04-26 15:42 39.36284 -75.49325 37169 ft 477 kts 40°
2026-04-26 15:43 39.41136 -75.43457 37169 ft 477 kts 40°
2026-04-26 15:44 39.48388 -75.34679 37176 ft 478 kts 40°
2026-04-26 15:44 39.55671 -75.25853 37183 ft 478 kts 40°
2026-04-26 15:45 39.62934 -75.16995 37173 ft 478 kts 40°
2026-04-26 15:46 39.70236 -75.08156 37170 ft 478 kts 39°
2026-04-26 15:46 39.74415 -75.03458 37170 ft 478 kts 37°
2026-04-26 15:47 39.82896 -74.94108 37170 ft 479 kts 38°
2026-04-26 15:48 39.87924 -74.88424 37171 ft 479 kts 38°
2026-04-26 15:48 39.93136 -74.83144 37172 ft 477 kts 32°
2026-04-26 15:49 39.98568 -74.78141 37170 ft 478 kts 32°
2026-04-26 15:49 40.03890 -74.72921 37179 ft 482 kts 40°
2026-04-26 15:50 40.08468 -74.66493 37193 ft 484 kts 45°
2026-04-26 15:50 40.12987 -74.59980 37190 ft 484 kts 45°
2026-04-26 15:51 40.17515 -74.53453 37184 ft 484 kts 45°
2026-04-26 15:51 40.22302 -74.47304 37185 ft 481 kts 36°
2026-04-26 15:52 40.27492 -74.41776 37180 ft 481 kts 36°
2026-04-26 15:52 40.32685 -74.36232 37187 ft 482 kts 36°
2026-04-26 15:53 40.37880 -74.30664 37196 ft 483 kts 36°
2026-04-26 15:53 40.43081 -74.25081 37204 ft 483 kts 36°
2026-04-26 15:54 40.48280 -74.19490 37211 ft 483 kts 36°
2026-04-26 15:54 40.53468 -74.13888 37215 ft 483 kts 36°
2026-04-26 15:55 40.58624 -74.08312 37215 ft 483 kts 36°
2026-04-26 15:55 40.63808 -74.02703 37219 ft 482 kts 36°
2026-04-26 15:56 40.68996 -73.97076 37215 ft 482 kts 36°
2026-04-26 15:56 40.74172 -73.91457 37210 ft 483 kts 36°
2026-04-26 15:57 40.79348 -73.85806 37212 ft 482 kts 36°
2026-04-26 15:57 40.84516 -73.80127 37213 ft 483 kts 39°
2026-04-26 15:58 40.88885 -73.73342 37216 ft 488 kts 53°
2026-04-26 15:58 40.92783 -73.65992 37210 ft 488 kts 52°
2026-04-26 15:59 40.96648 -73.58700 37210 ft 487 kts 53°
2026-04-26 15:59 41.00536 -73.51355 37207 ft 487 kts 53°
2026-04-26 16:00 41.04415 -73.44000 37203 ft 486 kts 53°
2026-04-26 16:00 41.08285 -73.36644 37203 ft 486 kts 53°
2026-04-26 16:01 41.12149 -73.29288 37203 ft 486 kts 53°
2026-04-26 16:01 41.16007 -73.21926 37204 ft 486 kts 53°
2026-04-26 16:02 41.19867 -73.14557 37203 ft 485 kts 53°
2026-04-26 16:02 41.23711 -73.07183 37203 ft 485 kts 53°
2026-04-26 16:03 41.27540 -72.99806 37204 ft 485 kts 53°
2026-04-26 16:03 41.31263 -72.92315 37203 ft 486 kts 56°
2026-04-26 16:04 41.34712 -72.84574 37205 ft 486 kts 58°
2026-04-26 16:04 41.38089 -72.76765 37203 ft 486 kts 58°
2026-04-26 16:05 41.41513 -72.69004 37203 ft 486 kts 57°
2026-04-26 16:05 41.44979 -72.61272 37206 ft 486 kts 57°
2026-04-26 16:06 41.48445 -72.53527 37210 ft 486 kts 58°
2026-04-26 16:06 41.51889 -72.45768 37216 ft 486 kts 58°
2026-04-26 16:07 41.55319 -72.37996 37219 ft 486 kts 58°
2026-04-26 16:07 41.58744 -72.30224 37217 ft 485 kts 58°
2026-04-26 16:08 41.62163 -72.22453 37210 ft 485 kts 58°
2026-04-26 16:08 41.65584 -72.14664 37213 ft 486 kts 58°
2026-04-26 16:09 41.69000 -72.06877 37215 ft 485 kts 58°
2026-04-26 16:09 41.72401 -71.99092 37214 ft 485 kts 58°
2026-04-26 16:10 41.75782 -71.91337 37211 ft 485 kts 58°
2026-04-26 16:10 41.79163 -71.83524 37210 ft 484 kts 58°
2026-04-26 16:11 41.83206 -71.76383 37211 ft 480 kts 45°
2026-04-26 16:11 41.87749 -71.69813 37209 ft 480 kts 45°
2026-04-26 16:12 41.92284 -71.63218 37211 ft 480 kts 45°
2026-04-26 16:12 41.99059 -71.53278 37207 ft 481 kts 45°
2026-04-26 16:13 42.02823 -71.47736 37208 ft 481 kts 45°
2026-04-26 16:13 42.07343 -71.41095 37214 ft 480 kts 45°
2026-04-26 16:14 42.11854 -71.34452 37214 ft 480 kts 45°
2026-04-26 16:15 42.18595 -71.24488 37211 ft 479 kts 45°
2026-04-26 16:15 42.23047 -71.17877 37212 ft 479 kts 45°
2026-04-26 16:16 42.29764 -71.07888 37212 ft 479 kts 45°
2026-04-26 16:16 42.34254 -71.01235 37213 ft 479 kts 42°
2026-04-26 16:17 42.39478 -70.95805 37220 ft 472 kts 28°
2026-04-26 16:17 42.45071 -70.91123 37222 ft 472 kts 28°
2026-04-26 16:18 42.53438 -70.84066 37222 ft 472 kts 28°
2026-04-26 16:19 42.61784 -70.76982 37218 ft 471 kts 28°
2026-04-26 16:19 42.67326 -70.72270 36328 ft 470 kts 28°
2026-04-26 16:20 42.70104 -70.69907 35589 ft 471 kts 28°
2026-04-26 16:20 42.75707 -70.65136 33823 ft 480 kts 29°
2026-04-26 16:20 42.78556 -70.62708 32870 ft 486 kts 29°
2026-04-26 16:21 42.81392 -70.60286 32308 ft 488 kts 29°
2026-04-26 16:21 42.84270 -70.57823 31954 ft 491 kts 29°
2026-04-26 16:21 42.87169 -70.55336 31611 ft 492 kts 29°
2026-04-26 16:21 42.90065 -70.52849 31214 ft 493 kts 29°
2026-04-26 16:22 42.92966 -70.50353 30817 ft 491 kts 30°
2026-04-26 16:22 42.95851 -70.47868 30415 ft 489 kts 30°
2026-04-26 16:22 42.98719 -70.45395 30022 ft 485 kts 30°
2026-04-26 16:22 43.01562 -70.42946 29585 ft 482 kts 30°
2026-04-26 16:23 43.04389 -70.40509 29162 ft 478 kts 30°
2026-04-26 16:23 43.07190 -70.38088 28736 ft 474 kts 30°
2026-04-26 16:23 43.09972 -70.35682 28309 ft 471 kts 30°
2026-04-26 16:23 43.12731 -70.33292 27884 ft 467 kts 30°
2026-04-26 16:24 43.15460 -70.30925 27459 ft 463 kts 30°
2026-04-26 16:24 43.18172 -70.28574 27034 ft 459 kts 30°
2026-04-26 16:24 43.20863 -70.26244 26612 ft 455 kts 30°
2026-04-26 16:24 43.23529 -70.23937 26186 ft 451 kts 30°
2026-04-26 16:25 43.26172 -70.21645 25756 ft 448 kts 30°
2026-04-26 16:25 43.28787 -70.19372 25332 ft 444 kts 30°
2026-04-26 16:25 43.31350 -70.17137 24913 ft 440 kts 30°
2026-04-26 16:25 43.33922 -70.14887 24484 ft 436 kts 30°
2026-04-26 16:26 43.36470 -70.12657 24060 ft 432 kts 30°
2026-04-26 16:26 43.38996 -70.10445 23635 ft 428 kts 30°
2026-04-26 16:26 43.41498 -70.08254 23210 ft 424 kts 30°
2026-04-26 16:26 43.43976 -70.06082 22780 ft 420 kts 31°
2026-04-26 16:27 43.46426 -70.03930 22361 ft 416 kts 31°
2026-04-26 16:27 43.48848 -70.01804 21934 ft 411 kts 31°
2026-04-26 16:27 43.51252 -69.99694 21508 ft 407 kts 31°
2026-04-26 16:27 43.53632 -69.97606 21087 ft 403 kts 31°
2026-04-26 16:28 43.55988 -69.95533 20651 ft 400 kts 31°
2026-04-26 16:28 43.58319 -69.93477 20228 ft 396 kts 31°
2026-04-26 16:28 43.60626 -69.91439 19805 ft 392 kts 32°
2026-04-26 16:28 43.62913 -69.89417 19372 ft 388 kts 32°
2026-04-26 16:29 43.65174 -69.87415 18947 ft 384 kts 32°
2026-04-26 16:29 43.67383 -69.85461 18531 ft 381 kts 32°
2026-04-26 16:29 43.69609 -69.83495 18106 ft 377 kts 32°
2026-04-26 16:29 43.71813 -69.81551 17680 ft 374 kts 32°
2026-04-26 16:30 43.73993 -69.79627 17250 ft 371 kts 32°
2026-04-26 16:30 43.76156 -69.77713 16825 ft 368 kts 32°
2026-04-26 16:30 43.78305 -69.75804 16400 ft 365 kts 33°
2026-04-26 16:30 43.80437 -69.73908 15975 ft 363 kts 33°
2026-04-26 16:31 43.82549 -69.72027 15546 ft 360 kts 33°
2026-04-26 16:31 43.84649 -69.70153 15111 ft 358 kts 33°
2026-04-26 16:31 43.86730 -69.68296 14695 ft 355 kts 33°
2026-04-26 16:31 43.88801 -69.66449 14273 ft 352 kts 33°
2026-04-26 16:32 43.90855 -69.64617 13838 ft 350 kts 33°
2026-04-26 16:32 43.92211 -69.63407 13556 ft 348 kts 33°
2026-04-26 16:32 43.94924 -69.60981 12987 ft 345 kts 33°
2026-04-26 16:32 43.96931 -69.59185 12562 ft 342 kts 34°
2026-04-26 16:33 43.98931 -69.57390 12134 ft 340 kts 34°
2026-04-26 16:33 44.00912 -69.55614 11707 ft 338 kts 34°
2026-04-26 16:33 44.02878 -69.53847 11286 ft 335 kts 34°
2026-04-26 16:33 44.04828 -69.52096 11018 ft 333 kts 33°
2026-04-26 16:34 44.06750 -69.50367 11007 ft 334 kts 33°
2026-04-26 16:34 44.08594 -69.48424 11007 ft 333 kts 46°
2026-04-26 16:34 44.10106 -69.45988 11011 ft 332 kts 50°
2026-04-26 16:34 44.11591 -69.43529 11015 ft 332 kts 50°
2026-04-26 16:35 44.13070 -69.41071 11016 ft 331 kts 50°
2026-04-26 16:35 44.14551 -69.38604 11019 ft 332 kts 50°
2026-04-26 16:35 44.16030 -69.36135 11020 ft 332 kts 50°
2026-04-26 16:35 44.17509 -69.33663 11017 ft 332 kts 50°
2026-04-26 16:36 44.18978 -69.31197 10968 ft 328 kts 50°
2026-04-26 16:36 44.20446 -69.28735 11015 ft 331 kts 50°
2026-04-26 16:36 44.21920 -69.26264 11009 ft 330 kts 50°
2026-04-26 16:36 44.23327 -69.23901 11005 ft 302 kts 50°
2026-04-26 16:37 44.24637 -69.21702 11012 ft 290 kts 50°
2026-04-26 16:37 44.25906 -69.19568 10761 ft 284 kts 50°
2026-04-26 16:37 44.27163 -69.17451 10414 ft 282 kts 50°
2026-04-26 16:37 44.27989 -69.16059 10186 ft 281 kts 50°
2026-04-26 16:38 44.29651 -69.13262 9716 ft 278 kts 50°
2026-04-26 16:38 44.30885 -69.11184 9351 ft 277 kts 50°
2026-04-26 16:38 44.32109 -69.09118 8984 ft 275 kts 50°
2026-04-26 16:38 44.33325 -69.07060 8610 ft 274 kts 50°
2026-04-26 16:39 44.34534 -69.05018 8236 ft 272 kts 50°
2026-04-26 16:39 44.35736 -69.02988 7854 ft 270 kts 50°
2026-04-26 16:39 44.36912 -69.00998 7472 ft 269 kts 50°
2026-04-26 16:39 44.38115 -68.98963 7075 ft 268 kts 50°
2026-04-26 16:40 44.39281 -68.96987 6697 ft 265 kts 50°
2026-04-26 16:40 44.40449 -68.95002 6303 ft 264 kts 50°
2026-04-26 16:40 44.41610 -68.93028 5908 ft 262 kts 50°
2026-04-26 16:40 44.42767 -68.91065 5507 ft 260 kts 50°
2026-04-26 16:41 44.43916 -68.89117 5108 ft 259 kts 50°
2026-04-26 16:41 44.45053 -68.87185 5012 ft 258 kts 50°
2026-04-26 16:41 44.46198 -68.85235 5011 ft 259 kts 50°
2026-04-26 16:41 44.47309 -68.83344 5007 ft 242 kts 50°
2026-04-26 16:42 44.48340 -68.81587 4936 ft 228 kts 50°
2026-04-26 16:42 44.49327 -68.79904 4816 ft 220 kts 50°
2026-04-26 16:42 44.50290 -68.78263 4583 ft 217 kts 50°
2026-04-26 16:42 44.51244 -68.76633 4332 ft 216 kts 50°
2026-04-26 16:43 44.52194 -68.75009 4064 ft 215 kts 50°
2026-04-26 16:43 44.53146 -68.73384 3808 ft 215 kts 50°
2026-04-26 16:43 44.54089 -68.71768 3551 ft 214 kts 50°
2026-04-26 16:43 44.55032 -68.70153 3295 ft 214 kts 50°
2026-04-26 16:44 44.55975 -68.68538 3079 ft 213 kts 50°
2026-04-26 16:44 44.56915 -68.66925 3002 ft 213 kts 50°
2026-04-26 16:44 44.57857 -68.65306 3014 ft 214 kts 50°
2026-04-26 16:44 44.58782 -68.63720 3004 ft 204 kts 50°
2026-04-26 16:45 44.59663 -68.62208 3008 ft 197 kts 50°
2026-04-26 16:45 44.60516 -68.60744 3010 ft 195 kts 50°
2026-04-26 16:45 44.61425 -68.59347 3009 ft 194 kts 35°
2026-04-26 16:45 44.62662 -68.58664 3010 ft 194 kts
2026-04-26 16:46 44.63981 -68.58978 3010 ft 195 kts 334°
2026-04-26 16:46 44.65037 -68.60174 3009 ft 197 kts 315°
2026-04-26 16:46 44.65986 -68.61560 3009 ft 196 kts 315°
2026-04-26 16:46 44.66911 -68.62900 3031 ft 189 kts 315°
2026-04-26 16:47 44.67833 -68.64226 3016 ft 187 kts 315°
2026-04-26 16:47 44.68742 -68.65532 3007 ft 186 kts 315°
2026-04-26 16:47 44.69648 -68.66834 2901 ft 187 kts 315°
2026-04-26 16:47 44.70554 -68.68134 2698 ft 186 kts 315°
2026-04-26 16:48 44.71456 -68.69430 2467 ft 184 kts 315°
2026-04-26 16:48 44.72354 -68.70721 2220 ft 184 kts 315°
2026-04-26 16:48 44.73220 -68.71965 1991 ft 178 kts 315°
2026-04-26 16:48 44.74049 -68.73157 1760 ft 159 kts 314°
2026-04-26 16:49 44.74772 -68.74198 1559 ft 145 kts 314°
2026-04-26 16:49 44.75464 -68.75195 1371 ft 140 kts 314°
2026-04-26 16:49 44.76138 -68.76166 1189 ft 138 kts 314°
2026-04-26 16:49 44.76806 -68.77128 1001 ft 137 kts 314°
2026-04-26 16:50 44.77468 -68.78083 822 ft 136 kts 314°
2026-04-26 16:50 44.78128 -68.79035 639 ft 136 kts 314°
2026-04-26 16:50 44.78785 -68.79985 450 ft 135 kts 314°
2026-04-26 16:50 44.79444 -68.80934 263 ft 135 kts 314°
2026-04-26 16:51 44.80085 -68.81870 180 ft 125 kts 314°
2026-04-26 16:51 44.80573 -68.82566 190 ft 75 kts 314°
2026-04-26 16:51 44.80841 -68.82957 198 ft 46 kts 314°
2026-04-26 16:51 44.81044 -68.83246 204 ft 35 kts 315°
2026-04-26 16:52 44.81148 -68.83320 191 ft 15 kts 29°
2026-04-26 16:52 44.81174 -68.83290 203 ft 15 kts 41°
2026-04-26 16:52 44.81306 -68.83114 196 ft 16 kts 47°
2026-04-26 16:52 44.81270 -68.82972 197 ft 14 kts 131°
2026-04-26 16:53 44.81195 -68.82861 194 ft 17 kts 135°
2026-04-26 16:53 44.81107 -68.82735 187 ft 20 kts 133°
2026-04-26 16:53 44.81005 -68.82585 187 ft 23 kts 134°
2026-04-26 16:53 44.80893 -68.82425 190 ft 20 kts 134°
2026-04-26 16:54 44.80798 -68.82290 196 ft 21 kts 135°
2026-04-26 16:54 44.80694 -68.82138 183 ft 21 kts 133°
2026-04-26 16:54 44.80618 -68.82024 182 ft 15 kts 134°
2026-04-26 16:54 44.80542 -68.81914 181 ft 15 kts 134°
2026-04-26 16:55 44.80553 -68.81802 181 ft 13 kts 45°
2026-04-26 16:55 44.80634 -68.81755 181 ft 12 kts 354°
2026-04-26 16:55 44.80710 -68.81744 181 ft 10 kts 39°
2026-04-26 16:55 44.80744 -68.81696 181 ft 0 kts 44°
2026-04-26 16:56 44.80749 -68.81690 181 ft 0 kts 44°